Time,TemperatureF,DewpointF,PressureIn,WindDirection,WindDirectionDegrees,WindSpeedMPH,WindSpeedGustMPH,Humidity,HourlyPrecipIn,Conditions,Clouds,dailyrainin,SoftwareType,DateUTC
2013-03-11 00:00:00,39.3,34.9,30.13,SE,135,0.0,0.0,84,0.00,,---,0.00,VWS V14.00,2013-03-11 04:00:00,
2013-03-11 00:05:00,39.0,34.6,30.13,SE,135,0.0,0.0,84,0.00,,---,0.00,VWS V14.00,2013-03-11 04:05:00,
2013-03-11 00:10:00,38.8,34.7,30.13,SE,135,0.0,0.0,85,0.00,,---,0.00,VWS V14.00,2013-03-11 04:10:00,
2013-03-11 00:15:00,38.8,34.4,30.13,SE,135,0.0,0.0,84,0.00,,---,0.00,VWS V14.00,2013-03-11 04:15:00,
2013-03-11 00:20:00,38.4,34.3,30.13,SE,135,0.0,0.0,85,0.00,,---,0.00,VWS V14.00,2013-03-11 04:20:00,
2013-03-11 00:25:00,38.4,34.3,30.13,SE,135,0.0,0.0,85,0.00,,---,0.00,VWS V14.00,2013-03-11 04:25:00,
2013-03-11 00:30:00,38.4,34.6,30.13,SE,135,0.0,0.0,86,0.00,,---,0.00,VWS V14.00,2013-03-11 04:30:00,
2013-03-11 00:35:00,38.4,34.6,30.13,SE,135,0.0,0.0,86,0.00,,---,0.00,VWS V14.00,2013-03-11 04:35:00,
2013-03-11 00:40:00,38.8,35.3,30.13,SE,135,0.0,0.0,87,0.00,,---,0.00,VWS V14.00,2013-03-11 04:40:00,
2013-03-11 00:45:00,39.0,35.5,30.13,SE,135,0.0,0.0,87,0.00,,---,0.00,VWS V14.00,2013-03-11 04:45:00,
2013-03-11 00:50:00,39.3,35.8,30.13,SE,135,0.0,0.0,87,0.00,,---,0.00,VWS V14.00,2013-03-11 04:50:00,
2013-03-11 00:55:00,39.5,36.0,30.12,SE,135,0.0,0.0,87,0.00,,---,0.00,VWS V14.00,2013-03-11 04:55:00,
2013-03-11 01:00:00,39.5,35.7,30.12,SE,135,0.0,0.0,86,0.00,,---,0.00,VWS V14.00,2013-03-11 05:00:00,
2013-03-11 01:05:00,39.5,35.7,30.11,SE,135,0.0,0.0,86,0.00,,---,0.00,VWS V14.00,2013-03-11 05:05:00,
2013-03-11 01:10:00,39.3,35.8,30.11,SE,135,0.0,0.0,87,0.00,,---,0.00,VWS V14.00,2013-03-11 05:10:00,
2013-03-11 01:15:00,39.3,35.8,30.11,SE,135,0.0,0.0,87,0.00,,---,0.00,VWS V14.00,2013-03-11 05:15:00,
2013-03-11 01:20:00,39.3,35.8,30.11,SE,135,0.0,0.0,87,0.00,,---,0.00,VWS V14.00,2013-03-11 05:20:00,
2013-03-11 01:26:00,39.3,35.8,30.11,SE,135,0.0,0.0,87,0.00,,---,0.00,VWS V14.00,2013-03-11 05:26:00,
2013-03-11 01:31:00,39.2,35.7,30.11,SE,135,0.0,0.0,87,0.00,,---,0.00,VWS V14.00,2013-03-11 05:31:00,
2013-03-11 01:36:00,39.2,36.0,30.11,SE,135,0.0,0.0,88,0.00,,---,0.00,VWS V14.00,2013-03-11 05:36:00,
2013-03-11 01:41:00,39.2,36.0,30.11,SE,135,0.0,0.0,88,0.00,,---,0.00,VWS V14.00,2013-03-11 05:41:00,
2013-03-11 01:46:00,39.3,36.0,30.11,SE,135,0.0,0.0,88,0.00,,---,0.00,VWS V14.00,2013-03-11 05:46:00,
2013-03-11 01:51:00,39.3,36.3,30.11,SE,135,0.0,0.0,89,0.00,,---,0.00,VWS V14.00,2013-03-11 05:51:00,
2013-03-11 01:56:00,39.7,36.7,30.10,SE,135,0.0,0.0,89,0.00,,---,0.00,VWS V14.00,2013-03-11 05:56:00,
2013-03-11 02:01:00,39.9,36.9,30.10,SE,135,0.0,0.0,89,0.00,,---,0.00,VWS V14.00,2013-03-11 06:01:00,
2013-03-11 02:06:00,40.2,36.9,30.10,SE,135,0.0,0.0,88,0.00,,---,0.00,VWS V14.00,2013-03-11 06:06:00,
2013-03-11 02:11:00,40.6,37.6,30.10,SE,135,0.0,0.0,89,0.00,,---,0.00,VWS V14.00,2013-03-11 06:11:00,
2013-03-11 02:16:00,41.0,38.3,30.10,SE,135,0.0,0.0,90,0.00,,---,0.00,VWS V14.00,2013-03-11 06:16:00,
2013-03-11 02:21:00,41.5,38.8,30.10,SE,135,1.3,1.3,90,0.00,,---,0.00,VWS V14.00,2013-03-11 06:21:00,
2013-03-11 02:27:00,42.6,39.9,30.10,SE,135,0.0,1.3,90,0.00,,---,0.00,VWS V14.00,2013-03-11 06:27:00,
2013-03-11 02:32:00,43.3,40.6,30.10,SE,135,0.0,0.0,90,0.00,,---,0.00,VWS V14.00,2013-03-11 06:32:00,
2013-03-11 02:37:00,44.0,41.3,30.10,SE,135,0.4,0.4,90,0.00,,---,0.00,VWS V14.00,2013-03-11 06:37:00,
2013-03-11 02:42:00,44.7,42.0,30.11,SE,135,0.8,0.8,90,0.00,,---,0.00,VWS V14.00,2013-03-11 06:42:00,
2013-03-11 02:47:00,46.0,43.5,30.10,SSW,202,0.0,0.8,91,0.00,,---,0.00,VWS V14.00,2013-03-11 06:47:00,
2013-03-11 02:52:00,46.9,44.4,30.10,South,180,0.0,0.0,91,0.00,,---,0.00,VWS V14.00,2013-03-11 06:52:00,
2013-03-11 02:57:00,47.8,45.0,30.10,SE,135,0.0,5.1,90,0.00,,---,0.00,VWS V14.00,2013-03-11 06:57:00,
2013-03-11 03:02:00,48.2,45.4,30.09,SSE,158,0.0,0.0,90,0.00,,---,0.00,VWS V14.00,2013-03-11 07:02:00,
2013-03-11 03:07:00,48.5,45.7,30.08,SE,135,0.0,0.6,90,0.00,,---,0.00,VWS V14.00,2013-03-11 07:07:00,
2013-03-11 03:12:00,48.9,45.8,30.08,West,270,4.4,4.4,89,0.00,,---,0.00,VWS V14.00,2013-03-11 07:12:00,
2013-03-11 03:17:00,49.1,46.0,30.08,SSE,158,0.0,4.4,89,0.00,,---,0.00,VWS V14.00,2013-03-11 07:17:00,
2013-03-11 03:22:00,49.2,46.1,30.08,SE,135,3.5,3.5,89,0.00,,---,0.00,VWS V14.00,2013-03-11 07:22:00,
2013-03-11 03:27:00,49.2,45.8,30.08,SW,225,0.6,4.0,88,0.00,,---,0.00,VWS V14.00,2013-03-11 07:27:00,
2013-03-11 03:32:00,49.2,45.8,30.08,SSE,158,0.0,0.0,88,0.00,,---,0.00,VWS V14.00,2013-03-11 07:32:00,
2013-03-11 03:37:00,49.2,45.8,30.08,SE,135,0.0,5.5,88,0.00,,---,0.00,VWS V14.00,2013-03-11 07:37:00,
2013-03-11 03:42:00,49.2,45.8,30.08,SSE,158,0.0,4.6,88,0.00,,---,0.00,VWS V14.00,2013-03-11 07:42:00,
2013-03-11 03:47:00,49.4,46.0,30.08,SE,135,2.4,4.6,88,0.00,,---,0.00,VWS V14.00,2013-03-11 07:47:00,
2013-03-11 03:52:00,49.2,45.8,30.08,SSE,158,1.1,1.1,88,0.00,,---,0.00,VWS V14.00,2013-03-11 07:52:00,
2013-03-11 03:57:00,49.2,45.8,30.07,WSW,248,0.0,5.8,88,0.00,,---,0.00,VWS V14.00,2013-03-11 07:57:00,
2013-03-11 04:02:00,49.2,46.1,30.07,SE,135,0.0,0.0,89,0.00,,---,0.00,VWS V14.00,2013-03-11 08:02:00,
2013-03-11 04:07:00,49.2,46.1,30.07,SSE,158,0.0,0.0,89,0.00,,---,0.00,VWS V14.00,2013-03-11 08:07:00,
2013-03-11 04:12:00,49.4,46.3,30.07,SSW,202,0.0,0.0,89,0.00,,---,0.00,VWS V14.00,2013-03-11 08:12:00,
2013-03-11 04:17:00,49.4,46.3,30.07,SW,225,8.2,8.2,89,0.00,,---,0.00,VWS V14.00,2013-03-11 08:17:00,
2013-03-11 04:22:00,49.2,46.1,30.07,South,180,0.0,0.0,89,0.00,,---,0.00,VWS V14.00,2013-03-11 08:22:00,
2013-03-11 04:27:00,49.2,46.1,30.07,ESE,112,0.0,0.2,89,0.00,,---,0.00,VWS V14.00,2013-03-11 08:27:00,
2013-03-11 04:32:00,49.2,46.1,30.06,ESE,112,4.6,4.6,89,0.00,,---,0.00,VWS V14.00,2013-03-11 08:32:00,
2013-03-11 04:37:00,49.2,46.4,30.06,SE,135,0.0,4.6,90,0.00,,---,0.00,VWS V14.00,2013-03-11 08:37:00,
2013-03-11 04:42:00,49.2,46.4,30.06,SE,135,0.0,2.4,90,0.00,,---,0.00,VWS V14.00,2013-03-11 08:42:00,
2013-03-11 04:48:00,49.2,46.4,30.05,SE,135,0.8,2.4,90,0.00,,---,0.00,VWS V14.00,2013-03-11 08:48:00,
2013-03-11 04:53:00,49.2,46.4,30.05,SE,135,0.4,8.9,90,0.00,,---,0.00,VWS V14.00,2013-03-11 08:53:00,
2013-03-11 04:58:00,49.2,46.4,30.05,South,180,0.0,8.9,90,0.00,,---,0.00,VWS V14.00,2013-03-11 08:58:00,
2013-03-11 05:03:00,49.2,46.4,30.04,SSE,158,0.0,0.0,90,0.00,,---,0.00,VWS V14.00,2013-03-11 09:03:00,
2013-03-11 05:08:00,49.1,46.6,30.04,SSW,202,4.9,4.9,91,0.00,,---,0.00,VWS V14.00,2013-03-11 09:08:00,
2013-03-11 05:13:00,49.2,46.7,30.04,SSW,202,0.0,0.0,91,0.00,,---,0.00,VWS V14.00,2013-03-11 09:13:00,
2013-03-11 05:18:00,49.1,46.6,30.04,South,180,3.8,3.8,91,0.00,,---,0.00,VWS V14.00,2013-03-11 09:18:00,
2013-03-11 05:23:00,49.1,46.6,30.04,SE,135,0.0,2.2,91,0.00,,---,0.00,VWS V14.00,2013-03-11 09:23:00,
2013-03-11 05:28:00,49.1,46.6,30.04,SE,135,3.8,3.8,91,0.00,,---,0.00,VWS V14.00,2013-03-11 09:28:00,
2013-03-11 05:33:00,49.1,46.6,30.04,South,180,4.0,4.0,91,0.00,,---,0.00,VWS V14.00,2013-03-11 09:33:00,
2013-03-11 05:38:00,49.2,46.7,30.05,South,180,0.0,4.0,91,0.00,,---,0.00,VWS V14.00,2013-03-11 09:38:00,
2013-03-11 05:43:00,49.2,46.7,30.05,East,90,0.0,1.5,91,0.00,,---,0.00,VWS V14.00,2013-03-11 09:43:00,
2013-03-11 05:48:00,49.2,46.7,30.04,South,180,3.8,3.8,91,0.00,,---,0.00,VWS V14.00,2013-03-11 09:48:00,
2013-03-11 05:53:00,49.2,46.7,30.04,SE,135,0.8,2.4,91,0.00,,---,0.00,VWS V14.00,2013-03-11 09:53:00,
2013-03-11 05:58:00,49.1,46.6,30.04,South,180,11.4,11.4,91,0.00,,---,0.00,VWS V14.00,2013-03-11 09:58:00,
2013-03-11 06:03:00,49.1,46.6,30.05,SSE,158,0.0,0.0,91,0.00,,---,0.00,VWS V14.00,2013-03-11 10:03:00,
2013-03-11 06:08:00,49.1,46.6,30.04,SSE,158,0.0,0.0,91,0.00,,---,0.00,VWS V14.00,2013-03-11 10:08:00,
2013-03-11 06:13:00,48.9,46.4,30.04,SE,135,4.9,6.2,91,0.00,,---,0.00,VWS V14.00,2013-03-11 10:13:00,
2013-03-11 06:18:00,48.9,46.4,30.04,SE,135,0.8,6.2,91,0.00,,---,0.00,VWS V14.00,2013-03-11 10:18:00,
2013-03-11 06:23:00,48.9,46.4,30.04,SE,135,7.3,7.3,91,0.00,,---,0.00,VWS V14.00,2013-03-11 10:23:00,
2013-03-11 06:28:00,48.7,46.5,30.04,SSE,158,3.1,7.3,92,0.00,,---,0.00,VWS V14.00,2013-03-11 10:28:00,
2013-03-11 06:33:00,48.7,46.5,30.05,SSE,158,2.0,2.0,92,0.00,,---,0.00,VWS V14.00,2013-03-11 10:33:00,
2013-03-11 06:38:00,48.7,46.5,30.05,SSE,158,2.0,5.8,92,0.00,,---,0.00,VWS V14.00,2013-03-11 10:38:00,
2013-03-11 06:43:00,48.7,46.5,30.05,SSE,158,0.0,3.1,92,0.00,,---,0.00,VWS V14.00,2013-03-11 10:43:00,
2013-03-11 06:48:00,48.7,46.8,30.05,SSE,158,0.0,3.1,93,0.00,,---,0.00,VWS V14.00,2013-03-11 10:48:00,
2013-03-11 06:53:00,48.5,46.6,30.05,SSE,158,4.0,5.5,93,0.00,,---,0.00,VWS V14.00,2013-03-11 10:53:00,
2013-03-11 06:58:00,48.3,46.4,30.05,SSW,202,5.3,5.5,93,0.00,,---,0.00,VWS V14.00,2013-03-11 10:58:00,
2013-03-11 07:04:00,48.3,46.4,30.05,SSE,158,0.0,2.6,93,0.00,,---,0.00,VWS V14.00,2013-03-11 11:04:00,
2013-03-11 07:09:00,48.3,46.4,30.05,South,180,1.5,4.0,93,0.00,,---,0.00,VWS V14.00,2013-03-11 11:09:00,
2013-03-11 07:14:00,48.2,46.3,30.05,SSE,158,6.2,6.2,93,0.00,,---,0.00,VWS V14.00,2013-03-11 11:14:00,
2013-03-11 07:19:00,48.2,46.3,30.05,ENE,68,0.8,6.2,93,0.00,,---,0.00,VWS V14.00,2013-03-11 11:19:00,
2013-03-11 07:24:00,48.2,46.3,30.05,South,180,0.0,3.1,93,0.00,,---,0.00,VWS V14.00,2013-03-11 11:24:00,
2013-03-11 07:29:00,48.2,46.3,30.05,East,90,2.2,4.4,93,0.00,,---,0.00,VWS V14.00,2013-03-11 11:29:00,
2013-03-11 07:34:00,48.2,46.3,30.04,SSE,158,0.0,0.0,93,0.00,,---,0.00,VWS V14.00,2013-03-11 11:34:00,
2013-03-11 07:39:00,48.2,46.3,30.04,SE,135,0.0,0.0,93,0.00,,---,0.00,VWS V14.00,2013-03-11 11:39:00,
2013-03-11 07:44:00,48.2,46.3,30.04,South,180,0.6,0.6,93,0.00,,---,0.00,VWS V14.00,2013-03-11 11:44:00,
2013-03-11 07:49:00,48.2,46.3,30.05,SSE,158,3.1,3.1,93,0.00,,---,0.00,VWS V14.00,2013-03-11 11:49:00,
2013-03-11 07:54:00,48.2,46.3,30.05,SSE,158,3.1,3.1,93,0.00,,---,0.00,VWS V14.00,2013-03-11 11:54:00,
2013-03-11 07:59:00,48.2,46.3,30.05,South,180,0.0,4.4,93,0.00,,---,0.00,VWS V14.00,2013-03-11 11:59:00,
2013-03-11 08:04:00,48.0,46.1,30.05,SW,225,0.0,1.5,93,0.00,,---,0.00,VWS V14.00,2013-03-11 12:04:00,
2013-03-11 08:09:00,48.0,46.4,30.05,SSE,158,0.0,1.5,94,0.00,,---,0.00,VWS V14.00,2013-03-11 12:09:00,
2013-03-11 08:14:00,48.0,46.4,30.05,SSE,158,0.0,0.6,94,0.00,,---,0.00,VWS V14.00,2013-03-11 12:14:00,
2013-03-11 08:19:00,48.0,46.4,30.05,SSE,158,3.3,3.3,94,0.00,,---,0.00,VWS V14.00,2013-03-11 12:19:00,
2013-03-11 08:24:00,48.0,46.4,30.05,SSE,158,2.2,2.2,94,0.00,,---,0.00,VWS V14.00,2013-03-11 12:24:00,
2013-03-11 08:29:00,47.8,46.2,30.05,SSE,158,0.0,2.2,94,0.00,,---,0.00,VWS V14.00,2013-03-11 12:29:00,
2013-03-11 08:34:00,47.8,46.2,30.06,SSE,158,0.0,2.2,94,0.00,,---,0.00,VWS V14.00,2013-03-11 12:34:00,
2013-03-11 08:39:00,47.8,46.2,30.06,SSE,158,0.0,2.2,94,0.00,,---,0.00,VWS V14.00,2013-03-11 12:39:00,
2013-03-11 08:44:00,47.8,46.2,30.06,SSE,158,0.0,0.0,94,0.00,,---,0.00,VWS V14.00,2013-03-11 12:44:00,
2013-03-11 08:49:00,47.8,46.4,30.06,SSE,158,0.0,0.8,95,0.00,,---,0.00,VWS V14.00,2013-03-11 12:49:00,
2013-03-11 08:54:00,47.8,46.4,30.06,SSE,158,0.0,2.2,95,0.00,,---,0.00,VWS V14.00,2013-03-11 12:54:00,
2013-03-11 08:59:00,47.8,46.4,30.06,SSE,158,0.0,2.2,95,0.00,,---,0.00,VWS V14.00,2013-03-11 12:59:00,
2013-03-11 09:04:00,47.6,46.2,30.06,SSE,158,0.0,0.0,95,0.00,,---,0.00,VWS V14.00,2013-03-11 13:04:00,
2013-03-11 09:09:00,47.4,46.0,30.06,SSE,158,0.0,0.0,95,0.00,,---,0.00,VWS V14.00,2013-03-11 13:09:00,
2013-03-11 09:14:00,47.4,46.3,30.05,SSE,158,0.0,0.0,96,0.00,,---,0.00,VWS V14.00,2013-03-11 13:14:00,
2013-03-11 09:19:00,47.4,46.3,30.05,SSE,158,0.0,0.0,96,0.00,,---,0.00,VWS V14.00,2013-03-11 13:19:00,
2013-03-11 09:24:00,47.4,46.3,30.05,SSE,158,0.0,0.0,96,0.00,,---,0.00,VWS V14.00,2013-03-11 13:24:00,
2013-03-11 09:29:00,47.6,46.5,30.05,SSE,158,2.0,2.0,96,0.00,,---,0.00,VWS V14.00,2013-03-11 13:29:00,
2013-03-11 09:34:00,47.6,46.5,30.04,SSE,158,0.0,0.0,96,0.00,,---,0.00,VWS V14.00,2013-03-11 13:34:00,
2013-03-11 09:39:00,47.6,46.5,30.05,SSE,158,0.0,0.0,96,0.00,,---,0.00,VWS V14.00,2013-03-11 13:39:00,
2013-03-11 09:44:00,47.8,46.7,30.04,SSE,158,0.0,0.0,96,0.00,,---,0.00,VWS V14.00,2013-03-11 13:44:00,
2013-03-11 09:49:00,47.8,46.7,30.04,SSE,158,0.0,0.0,96,0.00,,---,0.00,VWS V14.00,2013-03-11 13:49:00,
2013-03-11 09:54:00,47.8,46.7,30.04,SSE,158,0.0,0.0,96,0.00,,---,0.00,VWS V14.00,2013-03-11 13:54:00,
2013-03-11 09:59:00,48.0,46.6,30.04,SSE,158,0.6,0.6,95,0.00,,---,0.00,VWS V14.00,2013-03-11 13:59:00,
2013-03-11 10:04:00,48.0,46.6,30.04,ESE,112,0.8,0.8,95,0.00,,---,0.00,VWS V14.00,2013-03-11 14:04:00,
2013-03-11 10:09:00,48.0,46.6,30.04,ESE,112,0.0,0.8,95,0.00,,---,0.00,VWS V14.00,2013-03-11 14:09:00,
2013-03-11 10:14:00,48.0,46.6,30.03,SE,135,0.0,0.0,95,0.00,,---,0.00,VWS V14.00,2013-03-11 14:14:00,
2013-03-11 10:19:00,48.2,46.8,30.03,SE,135,1.5,1.7,95,0.00,,---,0.00,VWS V14.00,2013-03-11 14:19:00,
2013-03-11 10:24:00,48.0,46.6,30.03,SE,135,0.0,1.5,95,0.00,,---,0.00,VWS V14.00,2013-03-11 14:24:00,
2013-03-11 10:29:00,48.2,46.8,30.03,SE,135,0.0,1.5,95,0.00,,---,0.00,VWS V14.00,2013-03-11 14:29:00,
2013-03-11 10:34:00,48.2,46.8,30.03,SE,135,0.0,0.0,95,0.00,,---,0.00,VWS V14.00,2013-03-11 14:34:00,
2013-03-11 10:39:00,48.3,46.9,30.02,SE,135,0.0,0.0,95,0.00,,---,0.00,VWS V14.00,2013-03-11 14:39:00,
2013-03-11 10:44:00,48.3,46.9,30.02,SE,135,0.0,2.4,95,0.00,,---,0.00,VWS V14.00,2013-03-11 14:44:00,
2013-03-11 10:50:00,48.3,46.9,30.02,SE,135,0.0,2.4,95,0.00,,---,0.00,VWS V14.00,2013-03-11 14:50:00,
2013-03-11 10:55:00,48.5,47.1,30.02,SE,135,0.0,0.0,95,0.00,,---,0.00,VWS V14.00,2013-03-11 14:55:00,
2013-03-11 11:00:00,48.5,47.1,30.02,SE,135,0.0,0.0,95,0.00,,---,0.00,VWS V14.00,2013-03-11 15:00:00,
2013-03-11 11:05:00,48.5,47.1,30.02,SE,135,1.3,1.3,95,0.00,,---,0.00,VWS V14.00,2013-03-11 15:05:00,
2013-03-11 11:10:00,48.5,47.1,30.02,ESE,112,5.3,5.3,95,0.00,,---,0.00,VWS V14.00,2013-03-11 15:10:00,
2013-03-11 11:15:00,48.5,47.1,30.01,ESE,112,0.0,5.3,95,0.00,,---,0.00,VWS V14.00,2013-03-11 15:15:00,
2013-03-11 11:20:00,48.7,47.6,30.01,ESE,112,0.0,5.3,96,0.00,,---,0.00,VWS V14.00,2013-03-11 15:20:00,
2013-03-11 11:25:00,48.5,47.1,30.01,ESE,112,0.0,0.0,95,0.00,,---,0.00,VWS V14.00,2013-03-11 15:25:00,
2013-03-11 11:30:00,48.5,47.4,30.01,ESE,112,0.0,0.0,96,0.02,,---,0.02,VWS V14.00,2013-03-11 15:30:00,
2013-03-11 11:35:00,48.3,47.2,30.01,ESE,112,0.0,0.6,96,0.02,,---,0.02,VWS V14.00,2013-03-11 15:35:00,
2013-03-11 11:40:00,48.3,47.2,30.01,SE,135,0.0,0.6,96,0.02,,---,0.02,VWS V14.00,2013-03-11 15:40:00,
2013-03-11 11:45:00,48.3,47.2,30.00,SE,135,0.0,0.0,96,0.02,,---,0.02,VWS V14.00,2013-03-11 15:45:00,
2013-03-11 11:50:00,48.3,47.2,30.01,SE,135,0.0,0.4,96,0.02,,---,0.02,VWS V14.00,2013-03-11 15:50:00,
2013-03-11 11:55:00,48.5,47.4,30.01,SE,135,0.0,0.0,96,0.02,,---,0.02,VWS V14.00,2013-03-11 15:55:00,
2013-03-11 12:00:00,48.5,47.4,30.00,SE,135,0.0,0.0,96,0.02,,---,0.02,VWS V14.00,2013-03-11 16:00:00,
2013-03-11 12:05:00,48.7,47.9,30.00,SE,135,0.6,0.6,97,0.02,,---,0.02,VWS V14.00,2013-03-11 16:05:00,
2013-03-11 12:10:00,48.7,47.9,29.99,SE,135,0.0,0.6,97,0.02,,---,0.02,VWS V14.00,2013-03-11 16:10:00,
2013-03-11 12:15:00,48.7,47.9,30.00,ESE,112,0.0,6.2,97,0.02,,---,0.02,VWS V14.00,2013-03-11 16:15:00,
2013-03-11 12:20:00,48.7,47.9,29.99,ESE,112,0.0,6.2,97,0.02,,---,0.02,VWS V14.00,2013-03-11 16:20:00,
2013-03-11 12:25:00,48.7,47.9,29.99,ESE,112,1.7,1.7,97,0.02,,---,0.02,VWS V14.00,2013-03-11 16:25:00,
2013-03-11 12:30:00,48.9,48.1,30.00,ESE,112,0.0,1.7,97,0.02,,---,0.02,VWS V14.00,2013-03-11 16:30:00,
2013-03-11 12:35:00,48.7,47.9,29.99,ESE,112,0.0,0.0,97,0.00,,---,0.02,VWS V14.00,2013-03-11 16:35:00,
2013-03-11 12:40:00,48.7,47.9,29.99,ESE,112,0.8,0.8,97,0.00,,---,0.02,VWS V14.00,2013-03-11 16:40:00,
2013-03-11 12:45:00,48.9,48.1,29.99,ESE,112,0.0,1.1,97,0.00,,---,0.02,VWS V14.00,2013-03-11 16:45:00,
2013-03-11 12:50:00,48.9,48.1,29.98,ESE,112,0.4,1.1,97,0.00,,---,0.02,VWS V14.00,2013-03-11 16:50:00,
2013-03-11 12:55:00,49.1,48.3,29.97,SE,135,1.1,1.1,97,0.00,,---,0.02,VWS V14.00,2013-03-11 16:55:00,
2013-03-11 13:00:00,49.1,48.3,29.98,SE,135,0.0,1.1,97,0.00,,---,0.02,VWS V14.00,2013-03-11 17:00:00,
2013-03-11 13:05:00,49.1,48.3,29.98,South,180,0.0,0.0,97,0.00,,---,0.02,VWS V14.00,2013-03-11 17:05:00,
2013-03-11 13:10:00,49.1,48.3,29.97,South,180,0.0,0.0,97,0.00,,---,0.02,VWS V14.00,2013-03-11 17:10:00,
2013-03-11 13:15:00,49.1,48.3,29.97,South,180,0.0,0.0,97,0.00,,---,0.02,VWS V14.00,2013-03-11 17:15:00,
2013-03-11 13:20:00,49.2,48.4,29.97,South,180,0.0,0.0,97,0.00,,---,0.02,VWS V14.00,2013-03-11 17:20:00,
2013-03-11 13:25:00,49.4,48.6,29.97,South,180,0.0,0.0,97,0.00,,---,0.02,VWS V14.00,2013-03-11 17:25:00,
2013-03-11 13:30:00,49.8,49.0,29.97,South,180,0.0,0.0,97,0.00,,---,0.02,VWS V14.00,2013-03-11 17:30:00,
2013-03-11 13:35:00,49.8,49.0,29.95,South,180,0.0,0.0,97,0.00,,---,0.02,VWS V14.00,2013-03-11 17:35:00,
2013-03-11 13:40:00,50.1,49.3,29.95,South,180,0.0,1.3,97,0.00,,---,0.02,VWS V14.00,2013-03-11 17:40:00,
2013-03-11 13:45:00,50.5,49.4,29.95,South,180,0.0,0.0,96,0.00,,---,0.02,VWS V14.00,2013-03-11 17:45:00,
2013-03-11 13:50:00,50.7,49.6,29.95,South,180,0.0,0.0,96,0.00,,---,0.02,VWS V14.00,2013-03-11 17:50:00,
2013-03-11 13:55:00,50.7,49.6,29.95,South,180,0.0,0.0,96,0.00,,---,0.02,VWS V14.00,2013-03-11 17:55:00,
2013-03-11 14:00:00,51.0,49.9,29.94,South,180,0.0,0.0,96,0.00,,---,0.02,VWS V14.00,2013-03-11 18:00:00,
2013-03-11 14:05:00,51.0,49.9,29.94,South,180,0.0,0.0,96,0.00,,---,0.02,VWS V14.00,2013-03-11 18:05:00,
2013-03-11 14:10:00,51.0,49.6,29.94,South,180,0.0,0.0,95,0.00,,---,0.02,VWS V14.00,2013-03-11 18:10:00,
2013-03-11 14:15:00,51.0,49.6,29.93,South,180,0.0,0.0,95,0.00,,---,0.02,VWS V14.00,2013-03-11 18:15:00,
2013-03-11 14:20:00,51.0,49.6,29.92,South,180,0.0,0.0,95,0.00,,---,0.02,VWS V14.00,2013-03-11 18:20:00,
2013-03-11 14:25:00,51.4,50.0,29.91,South,180,0.0,0.0,95,0.00,,---,0.02,VWS V14.00,2013-03-11 18:25:00,
2013-03-11 14:30:00,51.6,50.2,29.91,South,180,0.0,0.0,95,0.00,,---,0.02,VWS V14.00,2013-03-11 18:30:00,
2013-03-11 14:35:00,51.8,50.1,29.91,South,180,0.0,1.1,94,0.00,,---,0.02,VWS V14.00,2013-03-11 18:35:00,
2013-03-11 14:40:00,51.8,50.1,29.91,South,180,0.0,0.0,94,0.00,,---,0.02,VWS V14.00,2013-03-11 18:40:00,
2013-03-11 14:45:00,52.1,50.4,29.90,South,180,0.0,0.0,94,0.00,,---,0.02,VWS V14.00,2013-03-11 18:45:00,
2013-03-11 14:50:00,52.1,50.4,29.91,South,180,0.0,0.0,94,0.00,,---,0.02,VWS V14.00,2013-03-11 18:50:00,
2013-03-11 14:55:00,52.1,50.4,29.90,South,180,0.0,0.0,94,0.00,,---,0.02,VWS V14.00,2013-03-11 18:55:00,
2013-03-11 15:00:00,52.3,50.6,29.90,South,180,0.0,0.0,94,0.00,,---,0.02,VWS V14.00,2013-03-11 19:00:00,
2013-03-11 15:05:00,52.5,50.5,29.90,South,180,0.0,0.0,93,0.00,,---,0.02,VWS V14.00,2013-03-11 19:05:00,
2013-03-11 15:10:00,52.8,50.8,29.90,South,180,1.7,1.7,93,0.00,,---,0.02,VWS V14.00,2013-03-11 19:10:00,
2013-03-11 15:16:00,53.4,51.4,29.90,South,180,0.0,1.7,93,0.00,,---,0.02,VWS V14.00,2013-03-11 19:16:00,
2013-03-11 15:21:00,53.7,51.7,29.89,South,180,0.0,0.0,93,0.00,,---,0.02,VWS V14.00,2013-03-11 19:21:00,
2013-03-11 15:26:00,53.9,51.9,29.87,South,180,0.0,0.0,93,0.00,,---,0.02,VWS V14.00,2013-03-11 19:26:00,
2013-03-11 15:31:00,54.5,52.2,29.89,South,180,0.0,0.0,92,0.00,,---,0.02,VWS V14.00,2013-03-11 19:31:00,
2013-03-11 15:36:00,54.5,52.2,29.87,South,180,0.8,0.8,92,0.00,,---,0.02,VWS V14.00,2013-03-11 19:36:00,
2013-03-11 15:41:00,54.6,52.3,29.89,South,180,0.0,0.0,92,0.00,,---,0.02,VWS V14.00,2013-03-11 19:41:00,
2013-03-11 15:46:00,54.8,52.2,29.88,SSE,158,0.0,0.2,91,0.00,,---,0.02,VWS V14.00,2013-03-11 19:46:00,
2013-03-11 15:51:00,55.2,52.6,29.88,SSE,158,0.0,0.0,91,0.00,,---,0.02,VWS V14.00,2013-03-11 19:51:00,
2013-03-11 15:56:00,55.5,52.9,29.87,SSE,158,0.0,0.0,91,0.00,,---,0.02,VWS V14.00,2013-03-11 19:56:00,
2013-03-11 16:01:00,55.9,53.0,29.88,SSE,158,0.0,0.0,90,0.00,,---,0.02,VWS V14.00,2013-03-11 20:01:00,
2013-03-11 16:06:00,55.9,53.0,29.87,SSE,158,0.0,1.1,90,0.00,,---,0.02,VWS V14.00,2013-03-11 20:06:00,
2013-03-11 16:11:00,56.1,53.2,29.86,SSE,158,1.1,1.1,90,0.00,,---,0.02,VWS V14.00,2013-03-11 20:11:00,
2013-03-11 16:16:00,56.3,53.4,29.87,South,180,0.0,1.1,90,0.00,,---,0.02,VWS V14.00,2013-03-11 20:16:00,
2013-03-11 16:21:00,56.4,53.2,29.87,SSE,158,2.0,2.0,89,0.00,,---,0.02,VWS V14.00,2013-03-11 20:21:00,
2013-03-11 16:26:00,56.8,53.6,29.86,SSE,158,0.0,6.2,89,0.00,,---,0.02,VWS V14.00,2013-03-11 20:26:00,
2013-03-11 16:32:00,56.8,53.3,29.87,South,180,6.2,6.2,88,0.00,,---,0.02,VWS V14.00,2013-03-11 20:32:00,
2013-03-11 16:37:00,56.8,53.3,29.88,SSW,202,0.0,6.2,88,0.00,,---,0.02,VWS V14.00,2013-03-11 20:37:00,
2013-03-11 16:42:00,56.8,53.3,29.88,SSE,158,0.0,2.4,88,0.00,,---,0.02,VWS V14.00,2013-03-11 20:42:00,
2013-03-11 16:47:00,57.0,53.5,29.88,East,90,6.4,6.4,88,0.00,,---,0.02,VWS V14.00,2013-03-11 20:47:00,
2013-03-11 16:52:00,57.0,53.2,29.86,ENE,68,1.3,1.3,87,0.00,,---,0.02,VWS V14.00,2013-03-11 20:52:00,
2013-03-11 16:57:00,57.0,53.2,29.85,ENE,68,1.1,1.3,87,0.00,,---,0.02,VWS V14.00,2013-03-11 20:57:00,
2013-03-11 17:02:00,57.0,53.2,29.85,SSW,202,3.3,3.3,87,0.00,,---,0.02,VWS V14.00,2013-03-11 21:02:00,
2013-03-11 17:07:00,57.0,53.2,29.86,SSW,202,1.5,3.3,87,0.00,,---,0.02,VWS V14.00,2013-03-11 21:07:00,
2013-03-11 17:12:00,57.0,53.2,29.86,ESE,112,0.8,5.5,87,0.00,,---,0.02,VWS V14.00,2013-03-11 21:12:00,
2013-03-11 17:17:00,57.0,52.9,29.85,ESE,112,0.0,5.5,86,0.00,,---,0.02,VWS V14.00,2013-03-11 21:17:00,
2013-03-11 17:22:00,56.8,53.0,29.85,ESE,112,0.0,0.0,87,0.00,,---,0.02,VWS V14.00,2013-03-11 21:22:00,
2013-03-11 17:27:00,56.8,53.0,29.84,SE,135,1.5,5.5,87,0.00,,---,0.02,VWS V14.00,2013-03-11 21:27:00,
2013-03-11 17:32:00,56.8,53.0,29.84,ENE,68,0.0,0.0,87,0.00,,---,0.02,VWS V14.00,2013-03-11 21:32:00,
2013-03-11 17:37:00,56.8,53.0,29.83,South,180,0.0,5.8,87,0.00,,---,0.02,VWS V14.00,2013-03-11 21:37:00,
2013-03-11 17:42:00,56.4,52.6,29.84,ESE,112,2.9,2.9,87,0.00,,---,0.02,VWS V14.00,2013-03-11 21:42:00,
2013-03-11 17:47:00,56.3,52.8,29.83,ESE,112,0.0,2.9,88,0.00,,---,0.02,VWS V14.00,2013-03-11 21:47:00,
2013-03-11 17:52:00,56.1,52.9,29.84,ESE,112,0.0,1.7,89,0.00,,---,0.02,VWS V14.00,2013-03-11 21:52:00,
2013-03-11 17:57:00,56.1,52.9,29.85,South,180,0.0,1.7,89,0.00,,---,0.02,VWS V14.00,2013-03-11 21:57:00,
2013-03-11 18:02:00,55.5,52.6,29.85,SSE,158,0.0,0.0,90,0.00,,---,0.02,VWS V14.00,2013-03-11 22:02:00,
2013-03-11 18:07:00,55.2,52.6,29.86,West,270,0.0,0.0,91,0.00,,---,0.02,VWS V14.00,2013-03-11 22:07:00,
2013-03-11 18:12:00,55.0,52.7,29.85,WNW,292,0.0,0.0,92,0.04,,---,0.06,VWS V14.00,2013-03-11 22:12:00,
2013-03-11 18:17:00,54.6,52.3,29.85,WNW,292,0.0,0.0,92,0.06,,---,0.08,VWS V14.00,2013-03-11 22:17:00,
2013-03-11 18:22:00,54.3,52.3,29.85,WNW,292,0.0,0.0,93,0.08,,---,0.10,VWS V14.00,2013-03-11 22:22:00,
2013-03-11 18:27:00,54.1,52.1,29.85,WNW,292,0.0,0.0,93,0.08,,---,0.10,VWS V14.00,2013-03-11 22:27:00,
2013-03-11 18:32:00,53.9,52.2,29.85,WNW,292,0.6,0.6,94,0.08,,---,0.10,VWS V14.00,2013-03-11 22:32:00,
2013-03-11 18:37:00,53.4,52.0,29.85,WNW,292,0.0,0.6,95,0.10,,---,0.12,VWS V14.00,2013-03-11 22:37:00,
2013-03-11 18:42:00,53.4,52.0,29.85,NW,315,0.0,0.0,95,0.10,,---,0.12,VWS V14.00,2013-03-11 22:42:00,
2013-03-11 18:48:00,53.4,52.0,29.84,South,180,0.0,1.3,95,0.13,,---,0.15,VWS V14.00,2013-03-11 22:48:00,
2013-03-11 18:53:00,53.4,52.3,29.83,South,180,0.0,0.0,96,0.15,,---,0.17,VWS V14.00,2013-03-11 22:53:00,
2013-03-11 18:58:00,53.2,52.1,29.83,South,180,0.0,0.0,96,0.15,,---,0.17,VWS V14.00,2013-03-11 22:58:00,
2013-03-11 19:03:00,52.8,51.7,29.85,South,180,0.0,0.0,96,0.17,,---,0.19,VWS V14.00,2013-03-11 23:03:00,
2013-03-11 19:08:00,52.8,51.7,29.85,South,180,0.0,0.0,96,0.17,,---,0.19,VWS V14.00,2013-03-11 23:08:00,
2013-03-11 19:13:00,52.8,51.7,29.86,South,180,0.0,0.0,96,0.12,,---,0.19,VWS V14.00,2013-03-11 23:13:00,
2013-03-11 19:18:00,52.7,51.9,29.85,South,180,0.0,0.0,97,0.14,,---,0.20,VWS V14.00,2013-03-11 23:18:00,
2013-03-11 19:23:00,52.7,51.9,29.85,South,180,0.0,0.0,97,0.10,,---,0.20,VWS V14.00,2013-03-11 23:23:00,
2013-03-11 19:28:00,52.5,51.7,29.85,South,180,0.0,0.0,97,0.12,,---,0.22,VWS V14.00,2013-03-11 23:28:00,
2013-03-11 19:33:00,52.5,52.0,29.86,South,180,0.0,0.0,98,0.12,,---,0.22,VWS V14.00,2013-03-11 23:33:00,
2013-03-11 19:38:00,52.3,51.8,29.86,South,180,0.0,0.0,98,0.12,,---,0.22,VWS V14.00,2013-03-11 23:38:00,
2013-03-11 19:43:00,52.3,51.8,29.86,South,180,0.0,0.0,98,0.10,,---,0.22,VWS V14.00,2013-03-11 23:43:00,
2013-03-11 19:48:00,52.3,51.8,29.86,South,180,0.0,0.0,98,0.12,,---,0.24,VWS V14.00,2013-03-11 23:48:00,
2013-03-11 19:53:00,52.1,51.5,29.86,South,180,0.0,0.0,98,0.12,,---,0.27,VWS V14.00,2013-03-11 23:53:00,
2013-03-11 19:58:00,52.1,51.5,29.86,South,180,0.0,0.0,98,0.12,,---,0.27,VWS V14.00,2013-03-11 23:58:00,
2013-03-11 20:03:00,51.9,51.4,29.86,South,180,0.0,0.0,98,0.08,,---,0.27,VWS V14.00,2013-03-12 00:03:00,
2013-03-11 20:08:00,51.9,51.4,29.87,South,180,0.0,0.0,98,0.08,,---,0.27,VWS V14.00,2013-03-12 00:08:00,
2013-03-11 20:13:00,51.9,51.6,29.86,South,180,0.0,0.0,99,0.10,,---,0.29,VWS V14.00,2013-03-12 00:13:00,
2013-03-11 20:18:00,51.9,51.6,29.87,South,180,0.0,0.0,99,0.12,,---,0.31,VWS V14.00,2013-03-12 00:18:00,
2013-03-11 20:23:00,51.9,51.6,29.87,South,180,0.0,0.0,99,0.10,,---,0.31,VWS V14.00,2013-03-12 00:23:00,
2013-03-11 20:28:00,51.8,51.5,29.87,South,180,0.0,0.0,99,0.12,,---,0.33,VWS V14.00,2013-03-12 00:28:00,
2013-03-11 20:33:00,51.8,51.5,29.86,South,180,0.0,0.0,99,0.10,,---,0.33,VWS V14.00,2013-03-12 00:33:00,
2013-03-11 20:38:00,51.6,51.3,29.87,South,180,0.0,0.0,99,0.12,,---,0.35,VWS V14.00,2013-03-12 00:38:00,
2013-03-11 20:43:00,51.6,51.3,29.87,South,180,0.0,0.0,99,0.14,,---,0.37,VWS V14.00,2013-03-12 00:43:00,
2013-03-11 20:48:00,51.6,51.3,29.87,South,180,0.0,0.0,99,0.14,,---,0.37,VWS V14.00,2013-03-12 00:48:00,
2013-03-11 20:53:00,51.6,51.3,29.87,South,180,0.0,0.0,99,0.19,,---,0.43,VWS V14.00,2013-03-12 00:53:00,
2013-03-11 20:58:00,51.6,51.3,29.87,South,180,0.0,0.0,99,0.20,,---,0.45,VWS V14.00,2013-03-12 00:58:00,
2013-03-11 21:03:00,51.6,51.3,29.87,South,180,0.0,0.0,99,0.20,,---,0.47,VWS V14.00,2013-03-12 01:03:00,
2013-03-11 21:08:00,51.6,51.3,29.87,South,180,0.0,0.0,99,0.20,,---,0.47,VWS V14.00,2013-03-12 01:08:00,
2013-03-11 21:13:00,51.6,51.3,29.87,South,180,0.0,0.0,99,0.20,,---,0.49,VWS V14.00,2013-03-12 01:13:00,
2013-03-11 21:18:00,51.6,51.3,29.87,South,180,0.0,0.0,99,0.22,,---,0.51,VWS V14.00,2013-03-12 01:18:00,
2013-03-11 21:23:00,51.6,51.3,29.87,South,180,0.0,0.0,99,0.20,,---,0.51,VWS V14.00,2013-03-12 01:23:00,
2013-03-11 21:28:00,51.6,51.3,29.87,South,180,0.0,0.0,99,0.22,,---,0.53,VWS V14.00,2013-03-12 01:28:00,
2013-03-11 21:33:00,51.4,51.1,29.86,South,180,0.0,0.0,99,0.20,,---,0.53,VWS V14.00,2013-03-12 01:33:00,
2013-03-11 21:39:00,51.4,51.1,29.87,South,180,0.0,0.0,99,0.22,,---,0.55,VWS V14.00,2013-03-12 01:39:00,
2013-03-11 21:44:00,51.2,50.9,29.86,South,180,0.0,0.0,99,0.20,,---,0.55,VWS V14.00,2013-03-12 01:44:00,
2013-03-11 21:49:00,51.2,50.9,29.86,South,180,0.0,0.0,99,0.20,,---,0.55,VWS V14.00,2013-03-12 01:49:00,
2013-03-11 21:54:00,51.0,50.7,29.86,South,180,0.0,0.0,99,0.16,,---,0.55,VWS V14.00,2013-03-12 01:54:00,
2013-03-11 21:59:00,51.0,50.7,29.85,South,180,0.0,0.0,99,0.16,,---,0.55,VWS V14.00,2013-03-12 01:59:00,
2013-03-11 22:04:00,50.9,50.6,29.86,South,180,0.0,0.0,99,0.10,,---,0.57,VWS V14.00,2013-03-12 02:04:00,
2013-03-11 22:09:00,50.9,50.6,29.86,South,180,0.0,0.0,99,0.10,,---,0.57,VWS V14.00,2013-03-12 02:09:00,
2013-03-11 22:14:00,50.7,50.4,29.86,South,180,0.0,0.0,99,0.10,,---,0.59,VWS V14.00,2013-03-12 02:14:00,
2013-03-11 22:19:00,50.7,50.4,29.85,South,180,0.0,0.0,99,0.12,,---,0.61,VWS V14.00,2013-03-12 02:19:00,
2013-03-11 22:24:00,50.7,50.4,29.85,South,180,0.0,0.0,99,0.10,,---,0.61,VWS V14.00,2013-03-12 02:24:00,
2013-03-11 22:29:00,50.7,50.4,29.85,South,180,0.0,0.0,99,0.12,,---,0.63,VWS V14.00,2013-03-12 02:29:00,
2013-03-11 22:34:00,50.7,50.4,29.85,South,180,0.0,0.0,99,0.10,,---,0.63,VWS V14.00,2013-03-12 02:34:00,
2013-03-11 22:39:00,50.7,50.4,29.84,South,180,0.0,0.0,99,0.10,,---,0.63,VWS V14.00,2013-03-12 02:39:00,
2013-03-11 22:44:00,50.7,50.4,29.84,South,180,0.0,0.0,99,0.10,,---,0.65,VWS V14.00,2013-03-12 02:44:00,
2013-03-11 22:49:00,50.7,50.4,29.84,South,180,0.0,0.0,99,0.10,,---,0.65,VWS V14.00,2013-03-12 02:49:00,
2013-03-11 22:54:00,50.7,50.4,29.84,South,180,0.0,0.0,99,0.12,,---,0.67,VWS V14.00,2013-03-12 02:54:00,
2013-03-11 22:59:00,50.7,50.7,29.83,South,180,0.0,0.0,100,0.12,,---,0.67,VWS V14.00,2013-03-12 02:59:00,
2013-03-11 23:04:00,50.9,50.9,29.83,South,180,0.0,0.0,100,0.10,,---,0.67,VWS V14.00,2013-03-12 03:04:00,
2013-03-11 23:09:00,50.9,50.9,29.84,South,180,0.0,0.0,100,0.10,,---,0.67,VWS V14.00,2013-03-12 03:09:00,
2013-03-11 23:14:00,50.7,50.7,29.83,South,180,0.0,0.0,100,0.10,,---,0.69,VWS V14.00,2013-03-12 03:14:00,
2013-03-11 23:19:00,50.7,50.7,29.83,South,180,0.0,0.0,100,0.10,,---,0.69,VWS V14.00,2013-03-12 03:19:00,
2013-03-11 23:24:00,50.7,50.7,29.82,South,180,0.0,0.0,100,0.08,,---,0.69,VWS V14.00,2013-03-12 03:24:00,
2013-03-11 23:29:00,50.7,50.7,29.82,South,180,0.0,0.0,100,0.10,,---,0.72,VWS V14.00,2013-03-12 03:29:00,
2013-03-11 23:34:00,50.7,50.7,29.82,South,180,0.0,0.0,100,0.08,,---,0.72,VWS V14.00,2013-03-12 03:34:00,
2013-03-11 23:39:00,50.7,50.7,29.83,South,180,0.0,0.0,100,0.08,,---,0.72,VWS V14.00,2013-03-12 03:39:00,
2013-03-11 23:44:00,50.7,50.7,29.81,South,180,0.0,0.0,100,0.08,,---,0.72,VWS V14.00,2013-03-12 03:44:00,
2013-03-11 23:49:00,50.7,50.7,29.81,South,180,0.0,0.0,100,0.10,,---,0.74,VWS V14.00,2013-03-12 03:49:00,
2013-03-11 23:54:00,50.7,50.7,29.81,South,180,0.0,0.0,100,0.10,,---,0.76,VWS V14.00,2013-03-12 03:54:00,
2013-03-11 23:59:00,50.7,50.7,29.81,South,180,0.0,0.0,100,0.10,,---,0.76,VWS V14.00,2013-03-12 03:59:00,